"Pseudo-MPEC" for P10YaJa

Created 2020 Mar 26 23:07:17 UT using Find_Orb

Click here for an explanation of pseudo-MPECs

 
 Astrometry: 
     P10YaJa  C2020 03 24-=x5K1!Astrometry'U+xu%H@g=eXOb/jcSk_oSWq+lBn_D#;OU7F51
     P10YaJa  C2020 03 24.#1O@vaJ_p:$_as8kDe3:3L86hBE%PHjCggmL8-redacted;NFiiF51
     P10YaJa  C2020 03 249bZ]Mnw:t6*bXOAbw2h@S0g%N-ruPa48BKejYdlc'$8gjh/0AsRuF51
     P10YaJa  C2020 03 24am!8UiPQ:pA=O_cm@h+w/ue`a88agI5t;D=EuXopOE/8l*w'5Ml.F51
     P10YaJa  C2020 03 243-%oAwrVqg52OG(yv'chsmIJt8w@F0NiwBgox8\S'clickH\NP6$246
     P10YaJa  C2020 03 241yG*lpU@.R`/=hc`e+M4^fJkms'v#=T5!sbqN(Z[CCR1`8Qlfe*,246
     P10YaJa  C2020 03 24jOS=VO@N*Uj+Ohere-WW5klXhDDN7utW:X=*-pforGFhl*w6iC83246
     P10YaJa  C2020 03 24E*kg)itdj+%#Hc01(StH*ele.l#ulagYD0Ou@ITCK=-j(6b[def)246
     P10YaJa  C2020 03 24WQl#.goo.):?X2nx6Hua?]+HMn)kYIu6gmbT=XcFL\$8PW(R,jqi246
     P10YaJa  C2020 03 24O?CI.L]l'J:iXW!u#'W[@a8H9El1hvP_?Smv*BaexplanationT\246
     P10YaJa  C2020 03 26.90910 12 17 05.36 +14 47 26.9    ~3QMM 20.0 VVNEOCP033
     P10YaJa  C2020 03 26.91094 12 17 05.31 +14 47 28.4    ~3QMM 20.0 VVNEOCP033
     P10YaJa  C2020 03 26.91279 12 17 05.29 +14 47 29.7    ~3QMM 19.9 VVNEOCP033

Station data:
(033) Karl Schwarzschild Observatory, Tautenburg  (N50.980140 E11.711240)
   Germany. 1.3-m Schmidt.
(246) Klet Observatory-KLENOT  (N48.863293 E14.288100)  Czech Republic.
   1.06-m KLENOT telescope.
(F51) Pan-STARRS 1, Haleakala  (N20.707235 W156.255910)  US/Hawaii.
   Observers N. Primak, A. Schultz, S. Watters, J. Thiel, T. Goggia. Measurer
   PS1 Science Consortium. 1.8-m Ritchey-Chrétien + CCD.

Orbital elements:  P10YaJa
   Perihelion 2020 Apr 24.863030 +/- 6.92 TT = 20:42:45 (JD 2458964.363030)
Epoch 2020 Mar 26.0 TT = JDT 2458934.5   Earth MOID: 0.6228   Ma: 0.0578
M 353.33104027 +/- 1.2              (J2000 ecliptic)          AutoNEOCP
n   0.22331825 +/- 0.0195           Peri.   58.40245 +/- 4.9
a   2.69062537 +/- 0.156            Node   141.66465 +/- 1.1
e   0.4047764 +/- 0.0256            Incl.    8.96696 +/- 0.48
P   4.41                   H 19.7   G  0.15   U 10.1  
q 1.60152361 +/- 0.0357    Q 3.77972712 +/- 0.3
From 13 observations 2020 Mar. 24-26; mean residual 0".43
Residuals in arcseconds: 
200324 F51  .13+  .06+    200324 246  .03-  .58-    200326 033  .13+  .07-    
200324 F51  .13+  .01+    200324 246  .47-  .11-    200326 033  .14-  .07+    
200324 F51  .09-  .03+    200324 246  1.2+  .43+    200326 033  .02+  .00     
200324 F51  .13-  .10-    200324 246  .90-  .53-    
200324 246  .55-  .07-    200324 246  .73+  .84+    

Ephemerides (geocentric):
Date (UTC) HH   RA              Dec         delta   r     elong  mag " sig PA
---- -- -- --  -------------   -----------  ------ ------ -----  --- ---- ---
2020 03 26 23  12 17 04.477   +14 48 11.29  .64103 1.6208 162.5 20.4 .548 155
2020 03 27 00  12 17 03.916   +14 48 41.78  .64103 1.6208 162.5 20.4 .515 152
2020 03 27 01  12 17 03.355   +14 49 12.23  .64102 1.6207 162.5 20.4 .482 150
2020 03 27 02  12 17 02.795   +14 49 42.65  .64101 1.6207 162.5 20.4 .448 146
2020 03 27 03  12 17 02.234   +14 50 13.03  .64100 1.6206 162.4 20.4 .414 143
2020 03 27 04  12 17 01.674   +14 50 43.37  .64100 1.6205 162.4 20.4 .382 138
2020 03 27 05  12 17 01.115   +14 51 13.67  .64099 1.6205 162.4 20.4 .350 132
2020 03 27 06  12 17 00.555   +14 51 43.93  .64098 1.6204 162.3 20.4 .322 125
2020 03 27 07  12 16 59.996   +14 52 14.16  .64098 1.6204 162.3 20.4 .299 117
2020 03 27 08  12 16 59.437   +14 52 44.35  .64097 1.6203 162.3 20.5 .282 107
2020 03 27 09  12 16 58.879   +14 53 14.50  .64097 1.6203 162.3 20.5 .273  96
2020 03 27 10  12 16 58.321   +14 53 44.61  .64096 1.6202 162.2 20.5 .276  84
2020 03 27 11  12 16 57.763   +14 54 14.68  .64096 1.6202 162.2 20.5 .289  73
2020 03 27 12  12 16 57.205   +14 54 44.71  .64096 1.6201 162.2 20.5 .313  63
2020 03 27 13  12 16 56.648   +14 55 14.71  .64095 1.6201 162.1 20.5 .346  54
2020 03 27 14  12 16 56.091   +14 55 44.66  .64095 1.6200 162.1 20.5 .387  47
2020 03 27 15  12 16 55.534   +14 56 14.58  .64094 1.6200 162.1 20.5 .434  41
2020 03 27 16  12 16 54.978   +14 56 44.46  .64094 1.6199 162.1 20.5 .487  36
2020 03 27 17  12 16 54.422   +14 57 14.30  .64094 1.6198 162.0 20.5 .543  32
2020 03 27 18  12 16 53.866   +14 57 44.10  .64094 1.6198 162.0 20.5 .603  28
2020 03 27 19  12 16 53.311   +14 58 13.86  .64094 1.6197 162.0 20.5 .666  25
2020 03 27 20  12 16 52.756   +14 58 43.58  .64093 1.6197 161.9 20.5 .732  23
2020 03 27 21  12 16 52.201   +14 59 13.26  .64093 1.6196 161.9 20.5 .801  21
2020 03 27 22  12 16 51.647   +14 59 42.91  .64093 1.6196 161.9 20.5 .872  19
2020 03 27 23  12 16 51.093   +15 00 12.51  .64093 1.6195 161.8 20.5 .945  17
2020 03 28 00  12 16 50.540   +15 00 42.08  .64093 1.6195 161.8 20.5 1.02  16
2020 03 28 01  12 16 49.987   +15 01 11.60  .64093 1.6194 161.8 20.5 1.10  15
2020 03 28 02  12 16 49.435   +15 01 41.09  .64093 1.6194 161.8 20.5 1.18  14
2020 03 28 03  12 16 48.882   +15 02 10.53  .64093 1.6193 161.7 20.5 1.26  13
2020 03 28 04  12 16 48.331   +15 02 39.94  .64093 1.6193 161.7 20.5 1.34  12
2020 03 28 05  12 16 47.779   +15 03 09.30  .64093 1.6192 161.7 20.5 1.43  11
2020 03 28 06  12 16 47.229   +15 03 38.63  .64094 1.6192 161.6 20.5 1.51  10
2020 03 28 07  12 16 46.678   +15 04 07.91  .64094 1.6191 161.6 20.5 1.60   9
2020 03 28 08  12 16 46.128   +15 04 37.16  .64094 1.6190 161.6 20.5 1.69   9
2020 03 28 09  12 16 45.579   +15 05 06.36  .64094 1.6190 161.5 20.5 1.79   8
2020 03 28 10  12 16 45.030   +15 05 35.53  .64094 1.6189 161.5 20.5 1.88   8
2020 03 28 11  12 16 44.481   +15 06 04.65  .64095 1.6189 161.5 20.5 1.98   7
2020 03 28 12  12 16 43.933   +15 06 33.73  .64095 1.6188 161.5 20.5 2.08   7
2020 03 28 13  12 16 43.386   +15 07 02.78  .64095 1.6188 161.4 20.5 2.18   6
2020 03 28 14  12 16 42.839   +15 07 31.78  .64096 1.6187 161.4 20.5 2.28   6
2020 03 28 15  12 16 42.292   +15 08 00.74  .64096 1.6187 161.4 20.5 2.38   5
2020 03 28 16  12 16 41.746   +15 08 29.66  .64097 1.6186 161.3 20.5 2.49   5
2020 03 28 17  12 16 41.200   +15 08 58.54  .64097 1.6186 161.3 20.5 2.59   5
2020 03 28 18  12 16 40.655   +15 09 27.38  .64098 1.6185 161.3 20.5 2.70   4
2020 03 28 19  12 16 40.111   +15 09 56.18  .64098 1.6185 161.2 20.5 2.81   4
2020 03 28 20  12 16 39.567   +15 10 24.94  .64099 1.6184 161.2 20.5 2.93   4
2020 03 28 21  12 16 39.024   +15 10 53.65  .64100 1.6184 161.2 20.5 3.04   3
2020 03 28 22  12 16 38.481   +15 11 22.33  .64100 1.6183 161.1 20.5 3.16   3